Weather History for Reno - Stead, NV

Change the Weather History Date:

Friday, July 26, 2013

  Actual Average (KRNO) Record (KRNO)
Temperature  
Mean Temperature 72 °F 76 °F  
Max Temperature 89 °F 94 °F 104 °F (1945)
Min Temperature 55 °F 59 °F 39 °F (1966)
Degree Days  
Heating Degree Days 0 0  
Month to date heating degree days 0  
Since 1 June heating degree days 56  
Since 1 July heating degree days 0  
Cooling Degree Days 7 11  
Month to date cooling degree days 259  
Year to date cooling degree days 432  
Since 1 June cooling degree days 395  
Growing Degree Days 22 (Base 50)    
Moisture  
Dew Point 48 °F    
Average Humidity 54    
Maximum Humidity 94    
Minimum Humidity 20    
Precipitation  
Precipitation 0.00 in 0.01 in 0.32 in (1938)
Month to date precipitation 0.15  
Year to date precipitation 4.43  
Snow  
Snow 0.00 in 0.00 in 0.00 in ()
Month to date snowfall 0.0  
Since 1 June snowfall T  
Since 1 July snowfall 0.0  
Snow Depth -    
Sea Level Pressure  
Sea Level Pressure 30.26 in    
Wind  
Wind Speed 5 mph (NW)    
Max Wind Speed 18 mph    
Max Gust Speed 23 mph    
Visibility 10 miles    
Events      
T = Trace of Precipitation, MM = Missing Value Source: NWS Daily Summary

Daily Weather History Graph

Daily Weather History Graph

Search for Another Location

Airport:

Trip Planner

Search our weather history database for the weather conditions in past years. The results will help you decide how hot, cold, wet, or windy it might be!

Date:

Astronomy

Jul. 26, 2013 Rise Set
Actual Time 5:53 AM PDT 8:17 PM PDT
Civil Twilight 5:22 AM PDT 8:48 PM PDT
Nautical Twilight 4:45 AM PDT 9:26 PM PDT
Astronomical Twilight 4:02 AM PDT 10:08 PM PDT
Moon 10:35 PM PDT (7/26) 10:34 AM PDT (7/26)
Length of Visible Light 15h 25m
Length of Day
14h 24m
Waning Gibbous, 79% of the Moon is Illuminated
Jul 26
Waning Gibbous
Jul 29
Last Quarter
Aug 6
New
Aug 14
First Quarter
Aug 20
Full

Hourly Weather History & Observations

Time (PDT) Temp. Dew Point Humidity Pressure Visibility Wind Dir Wind Speed Gust Speed Precip Events Conditions
12:15 AM 62.6 °F 51.8 °F 68% 30.29 in 10.0 mi Calm Calm - N/A   Partly Cloudy
12:35 AM 60.8 °F 53.6 °F 77% 30.28 in 10.0 mi North 8.1 mph - N/A   Clear
12:55 AM 62.6 °F 51.8 °F 68% 30.28 in 10.0 mi North 5.8 mph - N/A   Clear
1:15 AM 62.6 °F 51.8 °F 68% 30.28 in 10.0 mi Calm Calm - N/A   Scattered Clouds
1:35 AM 60.8 °F 51.8 °F 72% 30.28 in 10.0 mi Calm Calm - N/A   Mostly Cloudy
1:55 AM 62.6 °F 51.8 °F 68% 30.27 in 10.0 mi Calm Calm - N/A   Mostly Cloudy
2:15 AM 62.6 °F 51.8 °F 68% 30.27 in 10.0 mi Calm Calm - N/A   Partly Cloudy
2:35 AM 59.0 °F 53.6 °F 82% 30.28 in 10.0 mi WNW 3.5 mph - N/A   Scattered Clouds
2:55 AM 59.0 °F 53.6 °F 82% 30.27 in 10.0 mi NNW 5.8 mph - N/A   Partly Cloudy
3:15 AM 57.2 °F 53.6 °F 88% 30.27 in 10.0 mi North 6.9 mph - N/A   Clear
3:35 AM 59.0 °F 51.8 °F 77% 30.26 in 10.0 mi NNW 5.8 mph - N/A   Partly Cloudy
3:55 AM 59.0 °F 53.6 °F 82% 30.26 in 10.0 mi NE 5.8 mph - N/A   Mostly Cloudy
4:15 AM 59.0 °F 53.6 °F 82% 30.26 in 10.0 mi SE 4.6 mph - N/A   Partly Cloudy
4:35 AM 59.0 °F 51.8 °F 77% 30.27 in 10.0 mi NE 3.5 mph - N/A   Clear
4:55 AM 59.0 °F 53.6 °F 82% 30.27 in 10.0 mi Calm Calm - N/A   Clear
5:15 AM 57.2 °F 51.8 °F 82% 30.27 in 10.0 mi NNW 3.5 mph - N/A   Partly Cloudy
5:35 AM 55.4 °F 53.6 °F 94% 30.28 in 10.0 mi North 4.6 mph - N/A   Clear
5:55 AM 57.2 °F 51.8 °F 82% 30.28 in 10.0 mi North 4.6 mph - N/A   Clear
6:15 AM 55.4 °F 51.8 °F 88% 30.28 in 10.0 mi North 3.5 mph - N/A   Clear
6:35 AM 55.4 °F 51.8 °F 88% 30.29 in 10.0 mi North 4.6 mph - N/A   Clear
6:55 AM 57.2 °F 53.6 °F 88% 30.29 in 10.0 mi NW 3.5 mph - N/A   Clear
7:15 AM 59.0 °F 53.6 °F 82% 30.29 in 10.0 mi Calm Calm - N/A   Clear
7:35 AM 62.6 °F 53.6 °F 72% 30.30 in 10.0 mi Calm Calm - N/A   Clear
7:55 AM 66.2 °F 51.8 °F 60% 30.30 in 10.0 mi Calm Calm - N/A   Clear
8:15 AM 68.0 °F 51.8 °F 56% 30.30 in 10.0 mi Calm Calm - N/A   Clear
8:30 AM 68.0 °F 50.0 °F 52% 30.30 in 10.0 mi Calm Calm - N/A   Clear
8:55 AM 71.6 °F 50.0 °F 46% 30.31 in 10.0 mi Calm Calm - N/A   Clear
9:15 AM 71.6 °F 48.2 °F 43% 30.31 in 10.0 mi Calm Calm - N/A   Clear
9:35 AM 75.2 °F 50.0 °F 41% 30.30 in 10.0 mi NW 4.6 mph - N/A   Clear
9:55 AM 77.0 °F 48.2 °F 36% 30.30 in 10.0 mi Calm Calm - N/A   Clear
10:15 AM 77.0 °F 50.0 °F 39% 30.30 in 10.0 mi NNE 4.6 mph - N/A   Clear
10:35 AM 80.6 °F 48.2 °F 32% 30.30 in 10.0 mi West 11.5 mph - N/A   Clear
10:55 AM 82.4 °F 44.6 °F 26% 30.29 in 10.0 mi WSW 5.8 mph - N/A   Clear
5:55 PM 89.6 °F 44.6 °F 21% 30.18 in 10.0 mi West 17.3 mph 23.0 mph N/A   Clear
6:15 PM 87.8 °F 44.6 °F 22% 30.18 in 10.0 mi West 15.0 mph 20.7 mph N/A   Clear
6:35 PM 86.0 °F 42.8 °F 22% 30.19 in 10.0 mi West 18.4 mph 23.0 mph N/A   Clear
6:55 PM 86.0 °F 41.0 °F 20% 30.19 in 10.0 mi WNW 17.3 mph 21.9 mph N/A   Clear
7:15 PM 84.2 °F 44.6 °F 25% 30.19 in 10.0 mi West 17.3 mph 21.9 mph N/A   Clear
7:35 PM 84.2 °F 44.6 °F 25% 30.20 in 10.0 mi West 17.3 mph 21.9 mph N/A   Clear
7:55 PM 82.4 °F 44.6 °F 26% 30.21 in 10.0 mi West 15.0 mph - N/A   Clear
8:15 PM 80.6 °F 44.6 °F 28% 30.21 in 10.0 mi West 13.8 mph - N/A   Clear
8:35 PM 77.0 °F 44.6 °F 32% 30.21 in 10.0 mi West 10.4 mph - N/A   Clear
8:55 PM 75.2 °F 42.8 °F 31% 30.22 in 10.0 mi West 13.8 mph - N/A   Clear
9:15 PM 75.2 °F 41.0 °F 29% 30.22 in 10.0 mi West 12.7 mph - N/A   Clear
9:35 PM 73.4 °F 41.0 °F 31% 30.24 in 10.0 mi West 6.9 mph - N/A   Clear
9:55 PM 73.4 °F 42.8 °F 33% 30.25 in 10.0 mi WNW 5.8 mph - N/A   Clear
10:15 PM 73.4 °F 42.8 °F 33% 30.25 in 10.0 mi SW 4.6 mph - N/A   Scattered Clouds
10:35 PM 73.4 °F 41.0 °F 31% 30.25 in 10.0 mi West 11.5 mph - N/A   Overcast
10:55 PM 73.4 °F 41.0 °F 31% 30.26 in 10.0 mi SW 10.4 mph - N/A   Scattered Clouds
11:15 PM 73.4 °F 41.0 °F 31% 30.26 in 10.0 mi WSW 9.2 mph - N/A   Partly Cloudy
11:35 PM 71.6 °F 39.2 °F 31% 30.26 in 10.0 mi WNW 5.8 mph - N/A   Scattered Clouds
11:55 PM 68.0 °F 41.0 °F 37% 30.26 in 10.0 mi North 5.8 mph - N/A   Mostly Cloudy